User: anonymous   Login
Location: Goheenville
(40.9070°N, 79.3720°W)
Time: 04:15:55
(UTC-04:00)
Language:

NOAA 11 - Orbit

View from above orbital plane
View from above orbital plane
View from above satellite
View from above satellite

Ground track
Ground track

The orbit data is extracted from the following two-line orbital elements,

1 19531U 88089A   14303.20400986  .00000093  00000-0  70107-4 0   242
2 19531 098.6712 018.3924 0010156 270.6914 089.3096 14.15104846346836
Epoch (UTC): 30 October 2014 04:53:46
Eccentricity: 0.0010156
inclination: 98.6712°
perigee height: 834 km
apogee height: 849 km
right ascension of ascending node: 18.3924°
argument of perigee: 270.6914°
revolutions per day: 14.15104846
mean anomaly at epoch: 89.3096°
orbit number at epoch: 34683

The dashed part of the orbit path shows where the satellite is in the earth's shadow,  

DLR